Weather History for KEIK - June, 2013

Change the Weather History Date:

Friday, June 7, 2013

  Actual Average (KBJC) Record (KBJC)
Temperature  
Mean Temperature 64 °F -  
Max Temperature 83 °F 75 °F 96 °F (2004)
Min Temperature 45 °F 51 °F 42 °F (2003)
Degree Days  
Heating Degree Days 1    
Growing Degree Days 14 (Base 50)    
Moisture  
Dew Point 41 °F    
Average Humidity 48    
Maximum Humidity 88    
Minimum Humidity 20    
Precipitation  
Precipitation 0.00 in - - ()
Sea Level Pressure  
Sea Level Pressure 30.00 in    
Wind  
Wind Speed 2 mph (SSW)    
Max Wind Speed 15 mph    
Max Gust Speed 20 mph    
Visibility 10 miles    
Events      
Averages and records for this station are not official NWS values.
T = Trace of Precipitation, MM = Missing Value Source: NWS Daily Summary

Daily Weather History Graph

Daily Weather History Graph

Search for Another Location

Airport or City:

Trip Planner

Search our weather history database for the weather conditions in past years. The results will help you decide how hot, cold, wet, or windy it might be!

Date:

Astronomy

Jun. 07, 2013 Rise Set
Actual Time 5:31 AM MDT 8:27 PM MDT
Civil Twilight 4:58 AM MDT 8:59 PM MDT
Nautical Twilight 4:17 AM MDT 9:40 PM MDT
Astronomical Twilight 3:30 AM MDT 10:28 PM MDT
Moon 4:55 AM MDT (6/7) 7:43 PM MDT (6/7)
Length of Visible Light 16h 00m
Length of Day
14h 55m
Waning Crescent, 1% of the Moon is Illuminated
Jun 7
Waning Crescent
Jun 8
New
Jun 16
First Quarter
Jun 23
Full
Jun 29
Last Quarter

Hourly Weather History & Observations

Time (MDT) Temp. Dew Point Humidity Pressure Visibility Wind Dir Wind Speed Gust Speed Precip Events Conditions
12:15 AM 57.6 °F 40.3 °F 53% 30.14 in 10.0 mi Calm Calm - N/A   Clear
12:35 AM 55.6 °F 40.8 °F 58% 30.14 in 10.0 mi Calm Calm - N/A   Clear
12:55 AM 54.5 °F 41.9 °F 62% 30.14 in 10.0 mi Calm Calm - N/A   Clear
1:15 AM 51.6 °F 41.4 °F 68% 30.13 in 10.0 mi Calm Calm - N/A   Clear
1:35 AM 50.5 °F 41.7 °F 72% 30.13 in 10.0 mi Calm Calm - N/A   Clear
1:55 AM 50.2 °F 42.3 °F 74% 30.12 in 10.0 mi Calm Calm - N/A   Clear
2:15 AM 49.8 °F 41.7 °F 74% 30.12 in 10.0 mi Calm Calm - N/A   Clear
2:35 AM 49.1 °F 41.7 °F 76% 30.12 in 10.0 mi Calm Calm - N/A   Clear
2:55 AM 48.7 °F 42.8 °F 80% 30.11 in 10.0 mi Calm Calm - N/A   Clear
3:15 AM 47.5 °F 41.7 °F 80% 30.11 in 10.0 mi Calm Calm - N/A   Clear
3:35 AM 48.2 °F 42.1 °F 79% 30.11 in 10.0 mi Calm Calm - N/A   Clear
3:55 AM 48.4 °F 42.4 °F 80% 30.11 in 10.0 mi Calm Calm - N/A   Clear
4:15 AM 46.8 °F 42.3 °F 84% 30.11 in 10.0 mi Calm Calm - N/A   Clear
4:35 AM 46.8 °F 42.1 °F 84% 30.11 in 10.0 mi Calm Calm - N/A   Clear
4:55 AM 46.6 °F 41.5 °F 83% 30.11 in 10.0 mi Calm Calm - N/A   Clear
5:15 AM 46.4 °F 41.7 °F 84% 30.11 in 10.0 mi Calm Calm - N/A   Clear
5:35 AM 46.2 °F 41.7 °F 84% 30.12 in 10.0 mi Calm Calm - N/A   Clear
5:55 AM 45.5 °F 42.3 °F 88% 30.12 in 10.0 mi Calm Calm - N/A   Clear
6:15 AM 46.8 °F 43.2 °F 87% 30.12 in 10.0 mi Calm Calm - N/A   Clear
6:35 AM 47.7 °F 44.2 °F 88% 30.12 in 10.0 mi Calm Calm - N/A   Clear
6:55 AM 49.8 °F 45.0 °F 83% 30.12 in 10.0 mi SW 3.5 mph - N/A   Clear
7:15 AM 52.3 °F 46.6 °F 81% 30.12 in 10.0 mi Calm Calm - N/A   Clear
7:35 AM 55.4 °F 46.4 °F 72% 30.11 in 10.0 mi Calm Calm - N/A   Clear
7:55 AM 57.4 °F 45.9 °F 65% 30.10 in 10.0 mi Calm Calm - N/A   Scattered Clouds
8:15 AM 59.7 °F 45.9 °F 60% 30.10 in 10.0 mi Calm Calm - N/A   Clear
8:35 AM 61.0 °F 44.2 °F 54% 30.10 in 10.0 mi Calm Calm - N/A   Clear
8:55 AM 63.1 °F 43.3 °F 48% 30.09 in 10.0 mi NE 3.5 mph - N/A   Clear
9:15 AM 64.6 °F 43.5 °F 46% 30.09 in 10.0 mi ENE 3.5 mph - N/A   Clear
9:35 AM 66.9 °F 43.0 °F 42% 30.07 in 10.0 mi SE 3.5 mph - N/A   Clear
9:55 AM 65.7 °F 42.6 °F 43% 30.06 in 10.0 mi Calm Calm - N/A   Clear
10:15 AM 69.4 °F 41.5 °F 36% 30.05 in 10.0 mi SE 4.6 mph - N/A   Clear
10:35 AM 70.3 °F 39.7 °F 33% 30.04 in 10.0 mi South 4.6 mph - N/A   Clear
10:55 AM 72.3 °F 40.5 °F 32% 30.04 in 10.0 mi SE 5.8 mph - N/A   Clear
11:15 AM 74.5 °F 39.9 °F 29% 30.03 in 10.0 mi SE 5.8 mph - N/A   Clear
11:35 AM 74.8 °F 40.6 °F 29% 30.02 in 10.0 mi East 3.5 mph - N/A   Clear
11:55 AM 76.6 °F 39.2 °F 26% 30.01 in 10.0 mi SSE 5.8 mph - N/A   Clear
12:15 PM 78.3 °F 39.0 °F 24% 30.00 in 10.0 mi SSW 3.5 mph - N/A   Clear
12:35 PM 78.1 °F 39.2 °F 25% 30.01 in 10.0 mi Calm Calm - N/A   Clear
12:55 PM 76.3 °F 39.2 °F 26% 30.01 in 10.0 mi North 5.8 mph - N/A   Clear
1:15 PM 73.8 °F 41.9 °F 32% 30.00 in 10.0 mi North 12.7 mph - N/A   Scattered Clouds
1:35 PM 74.7 °F 42.6 °F 32% 29.98 in 10.0 mi ENE 9.2 mph - N/A   Scattered Clouds
1:55 PM 79.9 °F 39.9 °F 24% 29.97 in 10.0 mi East 5.8 mph - N/A   Clear
2:15 PM 79.9 °F 36.3 °F 21% 29.96 in 10.0 mi Calm Calm - N/A   Clear
2:35 PM 80.2 °F 36.5 °F 21% 29.96 in 10.0 mi South 3.5 mph - N/A   Clear
2:55 PM 79.5 °F 38.3 °F 23% 29.95 in 10.0 mi WSW 4.6 mph - N/A   Clear
3:15 PM 83.3 °F 37.6 °F 20% 29.95 in 10.0 mi SW 10.4 mph 17.3 mph N/A   Scattered Clouds
3:35 PM 81.9 °F 38.1 °F 21% 29.95 in 10.0 mi SW 9.2 mph 16.1 mph N/A   Scattered Clouds
3:55 PM 82.0 °F 38.7 °F 21% 29.94 in 10.0 mi SW 15.0 mph 19.6 mph N/A   Scattered Clouds
4:15 PM 81.9 °F 37.9 °F 21% 29.93 in 10.0 mi WSW 8.1 mph - N/A   Clear
4:35 PM 78.8 °F 36.0 °F 21% 29.92 in 10.0 mi Calm Calm - N/A   Clear
4:55 PM 77.2 °F 40.5 °F 27% 29.93 in 10.0 mi WNW 12.7 mph 18.4 mph N/A   Scattered Clouds
5:15 PM 76.1 °F 41.4 °F 29% 29.91 in 10.0 mi West 4.6 mph - N/A   Scattered Clouds
5:35 PM 79.0 °F 39.2 °F 24% 29.90 in 10.0 mi Calm Calm - N/A   Scattered Clouds
5:55 PM 78.3 °F 40.8 °F 26% 29.89 in 10.0 mi Calm Calm - N/A   Clear
6:15 PM 80.1 °F 38.3 °F 22% 29.88 in 10.0 mi Calm Calm - N/A   Clear
6:35 PM 79.2 °F 38.5 °F 23% 29.88 in 10.0 mi SSW 3.5 mph - N/A   Clear
6:55 PM 78.4 °F 38.5 °F 24% 29.88 in 10.0 mi WSW 3.5 mph - N/A   Clear
7:15 PM 78.4 °F 38.3 °F 24% 29.88 in 10.0 mi SW 4.6 mph - N/A   Clear
7:35 PM 76.8 °F 40.1 °F 27% 29.88 in 10.0 mi SW 5.8 mph - N/A   Clear
7:55 PM 75.2 °F 39.4 °F 27% 29.88 in 10.0 mi Calm Calm - N/A   Clear
8:15 PM 72.9 °F 40.5 °F 31% 29.87 in 10.0 mi Calm Calm - N/A   Clear
8:35 PM 69.3 °F 42.6 °F 38% 29.87 in 10.0 mi SW 3.5 mph - N/A   Clear
8:55 PM 65.5 °F 45.7 °F 49% 29.87 in 10.0 mi SSW 4.6 mph - N/A   Clear
9:15 PM 62.1 °F 44.8 °F 53% 29.86 in 10.0 mi Calm Calm - N/A   Clear
9:35 PM 62.6 °F 43.9 °F 50% 29.86 in 10.0 mi SSW 4.6 mph - N/A   Clear
9:55 PM 65.8 °F 41.2 °F 41% 29.86 in 10.0 mi West 3.5 mph - N/A   Clear
10:15 PM 62.4 °F 43.0 °F 49% 29.86 in 10.0 mi West 4.6 mph - N/A   Clear
10:35 PM 62.8 °F 42.1 °F 47% 29.85 in 10.0 mi SW 3.5 mph - N/A   Clear
10:55 PM 61.5 °F 42.3 °F 49% 29.85 in 10.0 mi SSW 3.5 mph - N/A   Clear
11:15 PM 61.0 °F 43.7 °F 53% 29.84 in 10.0 mi SSW 3.5 mph - N/A   Clear
11:35 PM 62.6 °F 42.8 °F 48% 29.83 in 10.0 mi SW 3.5 mph - N/A   Clear
11:55 PM 60.1 °F 42.8 °F 53% 29.82 in 10.0 mi SW 4.6 mph - N/A   Clear